Location: Mt. Graham
(32.7020°N, 109.8880°W)
Time: 17:19:24
(UTC-07:00)

Tiangong 2 - Visible Passes

Search period start: 17 June 2018 00:00
Search period end: 27 June 2018 00:00
Orbit: 292 x 298 km, 42.8° (Epoch: 17 June)

Date Brightness Start Highest point End Pass type
(mag) Time Alt. Az. Time Alt. Az. Time Alt. Az.
22 Jun 3.4 04:25:59 10° SE 04:26:18 10° SE 04:26:37 10° SE visible
23 Jun 2.2 04:30:08 10° SSW 04:32:16 24° SE 04:34:25 10° E visible
24 Jun 0.6 04:35:49 10° SW 04:38:15 67° SSE 04:40:47 10° ENE visible
25 Jun 1.2 04:41:49 10° WSW 04:44:16 45° NNW 04:46:44 10° NE visible
26 Jun 2.8 03:16:43 20° E 03:16:43 20° E 03:17:53 10° E visible
